Sakaraia Ravai

Scout - Lautoka
23 Jan 2028
Sonntag
Verarbeitung

Persönlichkeit

Anpassungsfähigkeit (9) Ehrgeiz (17) Kontroverse (11) Loyalität (6) Druck (15) Professionalität (2) Fairness (5) Temperament (1)

Profil

Trainerstil Demokratisch
Lizenz Kontinentale C
Entschlossenheit 4
Menschenführung 6
Motivation 7
Disziplin 5
Arbeitszufriedenheit
100%
Ermüdung
0%
Rolle Scout
Gehalt 8.6K p/W
Vertrag 14.03.2028

Leistung

Verhalten Gut
Trainingseffektivität
15%
Spielerentwicklung
15%
Verletzungsprävention
30%
Taktische Umsetzung
10%

Letzte Ereignisse

Nimmt an Fortbildung teil jetzt
Spieler begutachtet jetzt
Spieler begutachtet jetzt
Vertragsverhandlung begonnen jetzt
Spieler begutachtet jetzt
Spieler begutachtet jetzt
Vertragsverhandlung begonnen jetzt
Spieler begutachtet jetzt

Aktuell beobachtet

533
Spieler Verein Status Fähigkeit Vertrauen Beobachtet Zuletzt beobachtet Letzte Stimme
Juan Pablo Noce All Boys Aktiv 129 / 96 40% 5 22.01.2028 -
Martín Vallejos Quilmes Aktiv 112 / 99 40% 11 22.01.2028 -
Mauricio Lacerda Miramar Misiones Aktiv 77 / 70 40% 6 22.01.2028 -
Lucas González Estudiantes Aktiv 123 / 90 40% 7 22.01.2028 -
Ramiro Jara Racing Aktiv 99 / 85 40% 2 22.01.2028 -
Sardor Tukhtasinov Obod Aktiv 66 / 89 40% 4 22.01.2028 -
Leonardo González Colegiales Aktiv 89 / 84 40% 9 21.01.2028 -
Levi Sutton Harrogate Town Aktiv 79 / 66 40% 3 21.01.2028 -
Rodrigo Astorga Antofagasta Aktiv 92 / 78 40% 2 21.01.2028 -
Tomás Silva Maipú Aktiv 120 / 105 40% 4 21.01.2028 -
Anthony da Costa Artigas Aktiv 98 / 81 40% 2 20.01.2028 -
Jamie Wähling Hibernians Aktiv 94 / 95 40% 4 20.01.2028 -
Kane Vincent-Young Colchester United Aktiv 93 / 74 40% 2 20.01.2028 -
Juan Cekalovich Gimnasia y Esgrima Aktiv 105 / 95 40% 1 20.01.2028 -
Lucas Abarca Ba Aktiv 102 / 71 40% 5 19.01.2028 -
Kevin Morgan Plaza Colonia Aktiv 109 / 125 40% 1 19.01.2028 -
Juan Pablo Salomoni Union La Calera Aktiv 89 / 95 40% 1 19.01.2028 -
Camilo Ordóñez Deportes Quindio Aktiv 106 / 76 40% 4 18.01.2028 -
Alejandro Leiva Patronato Aktiv 77 / 105 40% 3 18.01.2028 -
Dendy Sulistyawan Bhayangkara Presisi Aktiv 58 / 86 40% 2 18.01.2028 -
Ronan Coughlan Torres Aktiv 109 / 93 40% 2 18.01.2028 -
Santiago Corbo Miramar Misiones Aktiv 126 / 108 40% 2 18.01.2028 -
Sebastián Gallardo Talleres Aktiv 83 / 83 40% 1 18.01.2028 -
Lucas Pazos Artigas Aktiv 95 / 108 40% 10 16.01.2028 -
Facundo Vigo Atenas Aktiv 94 / 87 40% 2 16.01.2028 -
Talgat Nurgaliev Akzhaiyk Aktiv 88 / 108 40% 2 16.01.2028 -
Rody Gómez Aragua Aktiv 79 / 61 40% 1 16.01.2028 -
Messie Biatoumoussoka Hamrun Spartans Aktiv 84 / 77 40% 2 15.01.2028 -
Zico Asare Harrogate Town Aktiv 79 / 85 40% 1 15.01.2028 -
Andrés Dieppa Bogota Aktiv 83 / 76 40% 1 15.01.2028 -
Ben Gibson Macarthur FC Aktiv 88 / 117 40% 14 14.01.2028 -
Angel Uñates Güemes Aktiv 108 / 81 40% 9 14.01.2028 -
Matías Samaniego Talleres Aktiv 111 / 102 40% 2 14.01.2028 -
Juanpe Gamba Osaka Aktiv 127 / 95 40% 1 14.01.2028 -
Nicolás Morro Defensores Aktiv 104 / 95 40% 5 13.01.2028 -
Luciano Perdomo Chacarita Juniors Aktiv 102 / 123 40% 4 13.01.2028 -
Michael Lockyer Canterbury United Aktiv 79 / 60 40% 1 13.01.2028 -
Reggie Rose Swindon Town Aktiv 95 / 56 40% 1 13.01.2028 -
Rafael Andrade Rewa Aktiv 75 / 70 40% 6 12.01.2028 -
Mateo Mamani Colegiales Aktiv 95 / 118 40% 5 12.01.2028 -
Luciano Minhondo Uruguay Montevideo Aktiv 103 / 114 40% 2 12.01.2028 -
Lorenzo Monti Temperley Aktiv 103 / 113 40% 1 12.01.2028 -
Franco Aguirre San Telmo Aktiv 95 / 99 40% 1 12.01.2028 -
Francisco Triver River Plate Aktiv 78 / 107 40% 5 11.01.2028 -
Juan Cruz Franzoni Gimnasia y Esgrima Aktiv 121 / 89 40% 2 11.01.2028 -
Tobías Barrionuevo Gimnasia y Tiro Aktiv 64 / 85 40% 1 11.01.2028 -
James Sissons Chesterfield Aktiv 48 / 78 40% 2 10.01.2028 -
Lucas Bersce Nueva Chicago Aktiv 103 / 104 40% 1 10.01.2028 -
Joaquín Silva Plaza Colonia Aktiv 97 / 101 40% 13 09.01.2028 -
Olughu Chinemerem Fenix Aktiv 99 / 100 40% 4 09.01.2028 -
Jordi Valadon Melbourne Victory Aktiv 101 / 113 40% 13 09.01.2028 -
Matías Cabrera Fenix Aktiv 105 / 80 40% 3 09.01.2028 -
Manuel Guanini Gimnasia y Tiro Aktiv 130 / 99 40% 4 09.01.2028 -
Ronald Angulo Deportes Quindio Aktiv 114 / 82 40% 2 09.01.2028 -
Marley Tavaziva Plaza Colonia Aktiv 77 / 73 40% 4 08.01.2028 -
Michael Barragán Union Magdalena Aktiv 95 / 81 40% 1 08.01.2028 -
Alexis Melo All Boys Aktiv 132 / 110 40% 10 07.01.2028 -
Andrea Zammit Valletta Aktiv 92 / 95 40% 3 07.01.2028 -
Owen Lockyer Waitakere United Aktiv 67 / 61 40% 1 07.01.2028 -
Joel Abraham Boston River Aktiv 71 / 87 40% 1 07.01.2028 -
Martín Álvarez Tristán Suárez Aktiv 94 / 92 40% 1 07.01.2028 -
Nicolás Brun Montevideo City Torque Aktiv 84 / 81 40% 4 06.01.2028 -
Franco Quiroz All Boys Aktiv 100 / 121 40% 8 06.01.2028 -
Santiago Camacho Estudiantes Aktiv 111 / 95 40% 3 06.01.2028 -
Gerônimo Parana Aktiv 75 / 95 40% 1 06.01.2028 -
Owen Falconis Cerrito Aktiv 102 / 106 40% 1 06.01.2028 -
Sam Hart Port Vale Aktiv 92 / 110 40% 1 06.01.2028 -
Fabian Talladira Adelaide United Aktiv 83 / 89 40% 2 05.01.2028 -
Juan Pablo Córdoba Gimnasia y Esgrima Aktiv 121 / 124 40% 10 05.01.2028 -
Lucas Cardoso Maluku Utara United Aktiv 103 / 67 40% 3 04.01.2028 -
Tomás Ramírez Morón Aktiv 127 / 110 40% 1 04.01.2028 -
Agustín Ojeda Chaco For Ever Aktiv 128 / 123 40% 4 03.01.2028 -
Charlie Hobbs Sheffield Wednesday Aktiv 52 / 66 40% 2 03.01.2028 -
Martín Araya Palestino Aktiv 92 / 81 40% 1 03.01.2028 -
Harrison Devenish-Meares Western Sydney Wanderers Aktiv 109 / 106 40% 1 03.01.2028 -
Eduardo Villanueva Colo-Colo Aktiv 112 / 106 40% 3 02.01.2028 -
Agustín Melano Belgrano Aktiv 108 / 90 40% 1 02.01.2028 -
Facundo Barreto Cerrito Aktiv 86 / 108 40% 5 01.01.2028 -
Ihab Abu Alshek Hapoel Raanana Aktiv 98 / 91 40% 1 01.01.2028 -
Francisco Russo Iquique Aktiv 102 / 74 40% 5 31.12.2027 -
Francisco Garrido Ferro Carril Oeste Aktiv 89 / 75 40% 3 31.12.2027 -
Albert García Aragua Aktiv 66 / 87 40% 1 31.12.2027 -
Maicol León Huachipato Aktiv 88 / 90 40% 3 30.12.2027 -
Rosyad Setiawan Semen Padang Aktiv 97 / 97 40% 1 30.12.2027 -
Benard Mundi Akzhaiyk Aktiv 74 / 115 40% 1 30.12.2027 -
James Bacca Universitario Popayan Aktiv 102 / 116 40% 4 29.12.2027 -
Sergio Pabón Deportes Quindio Aktiv 120 / 89 40% 5 29.12.2027 -
Ángel Maciel Tacuarembo Aktiv 111 / 106 40% 5 29.12.2027 -
Nicholas Pennington Perth Glory Aktiv 111 / 102 40% 3 29.12.2027 -
Mauricio Tévez Chaco For Ever Aktiv 104 / 87 40% 1 29.12.2027 -
Augusto Saravia All Boys Aktiv 70 / 79 40% 1 28.12.2027 -
Oriola Sunday Omiya Ardija Abgelehnt 110 / 113 40% 1 28.12.2027 Mehr Infos nötig
Josh Jeffries Southampton Aktiv 69 / 96 40% 2 26.12.2027 -
Ibroxim Numonov Bukhara Aktiv 66 / 100 40% 3 25.12.2027 -
Léo Fernandes Mosta Aktiv 64 / 88 40% 1 25.12.2027 -
Jonny Pettitt Wycombe Wanderers Aktiv 81 / 81 40% 1 25.12.2027 -
Rodrigo Monserrat Colegiales Aktiv 94 / 120 40% 1 25.12.2027 -
Tomás López River Plate Aktiv 113 / 87 40% 5 24.12.2027 -
Hilman Syah PSM Aktiv 63 / 96 40% 5 24.12.2027 -
Nahuel Gómez Oriental Aktiv 80 / 101 40% 1 24.12.2027 -
Alex Borto Torreense Aktiv 95 / 104 40% 6 22.12.2027 -
Edwin Sinisterra Universitario Popayan Abgelehnt 86 / 93 40% 2 22.12.2027 Mehr Infos nötig
Franco Bergés Güemes Abgelehnt 120 / 107 40% 1 22.12.2027 Mehr Infos nötig
Facundo Ledesma Mitre Aktiv 93 / 78 40% 3 21.12.2027 -
Guillermo Rivas Maipú Aktiv 86 / 100 40% 2 21.12.2027 -
Yamato Naito Ventforet Kofu Aktiv 97 / 70 40% 2 21.12.2027 -
Valentin Pereyra Patronato Aktiv 103 / 95 40% 6 20.12.2027 -
Nicolás Moreno San Martín Aktiv 120 / 123 40% 2 20.12.2027 -
Martín Marta Tacuarembo Aktiv 108 / 94 40% 4 20.12.2027 -
Sihran Amarullah Borneo Aktiv 80 / 64 40% 2 20.12.2027 -
David Maguicha Atlanta Aktiv 95 / 85 40% 3 19.12.2027 -
Ian López Tacuarembo Aktiv 93 / 110 40% 3 19.12.2027 -
Yago De Vito All Boys Aktiv 89 / 101 40% 4 19.12.2027 -
Mirjalol Jumayev Shortan Aktiv 63 / 67 40% 2 19.12.2027 -
Macula Birkirkara Aktiv 66 / 63 40% 2 19.12.2027 -
Santiago Patroni Defensores Unidos Aktiv 98 / 97 40% 3 18.12.2027 -
Leonel Pollacchi San Telmo Aktiv 104 / 128 40% 2 18.12.2027 -
Francisco Maidana Gimnasia y Esgrima Abgelehnt 118 / 101 40% 1 18.12.2027 Mehr Infos nötig
Valentín Dutruel Racing Aktiv 79 / 86 40% 2 17.12.2027 -
Lucas Camejo River Plate Aktiv 101 / 73 40% 8 17.12.2027 -
Alexey Baranov Obod Aktiv 86 / 102 40% 2 17.12.2027 -
Ridho Syuhada Maluku Utara United Aktiv 65 / 66 40% 1 17.12.2027 -
Mateo Pereyra Tacuarembo Aktiv 107 / 95 40% 3 16.12.2027 -
Matías Arredondo Atletico Venezuela Aktiv 64 / 70 40% 1 16.12.2027 -
Santiago Valenzuela Chaco For Ever Aktiv 123 / 106 40% 1 16.12.2027 -
Lautaro Bursich Talleres Aktiv 102 / 89 40% 3 15.12.2027 -
Lautaro Martínez Racing Club Aktiv 91 / 100 40% 2 15.12.2027 -
Brian Guerra Chaco For Ever Aktiv 119 / 108 40% 2 15.12.2027 -
Nicolás Molina Temperley Aktiv 96 / 93 40% 6 13.12.2027 -
Sam Morris Watford Aktiv 86 / 52 40% 1 13.12.2027 -
Brian Okonkwo Rotherham United Aktiv 81 / 79 40% 2 12.12.2027 -
Facundo Núñez Liverpool Montevideo Aktiv 96 / 91 40% 1 12.12.2027 -
Noah Phillips Swindon Town Aktiv 80 / 102 40% 6 11.12.2027 -
Fernando Abarzúa San Luis Aktiv 106 / 104 40% 2 11.12.2027 -
Daniel Ayala Aguilas Doradas Aktiv 84 / 96 40% 2 11.12.2027 -
Yacob Sayuri Maluku Utara United Aktiv 92 / 59 40% 3 11.12.2027 -
Andrés Tello Deportes Quindio Aktiv 113 / 102 40% 3 10.12.2027 -
Franco Hanashiro Colegiales Aktiv 116 / 91 40% 1 10.12.2027 -
Luke Hewitson Fleetwood Town Aktiv 69 / 110 40% 3 09.12.2027 -
Saidu Lawan Dewa United Aktiv 52 / 61 40% 3 08.12.2027 -
Santiago Direnna Miramar Misiones Aktiv 74 / 92 40% 8 07.12.2027 -
Emiliano Sosa Cerro Aktiv 88 / 112 40% 1 06.12.2027 -
Gabriel Ortelli Watford Aktiv 65 / 105 40% 3 04.12.2027 -
Felipe Rivarola San Martín Aktiv 98 / 107 40% 4 04.12.2027 -
Julián Marcioni Colón Aktiv 130 / 117 40% 6 04.12.2027 -
Javier Vallejos Central Córdoba SdE Aktiv 87 / 97 40% 5 04.12.2027 -
Facundo Infante Talleres Aktiv 74 / 104 40% 1 04.12.2027 -
Luis Yanes Real Cartagena Aktiv 76 / 95 40% 7 01.12.2027 -
Carlos Restrepo Depor Aktiv 100 / 94 40% 1 29.11.2027 -
Akmal Nematov Obod Aktiv 106 / 60 40% 1 28.11.2027 -
Corey Hollman Waitakere United Aktiv 83 / 101 40% 1 27.11.2027 -
Nzube Chukwurah Okzhetpes Aktiv 95 / 97 40% 1 27.11.2027 -
Joaquín Canadell Quilmes Aktiv 84 / 105 40% 2 25.11.2027 -
Jonathan Baeza La Luz Aktiv 86 / 103 40% 2 25.11.2027 -
Óscar Rojas Trujillanos Aktiv 79 / 108 40% 2 23.11.2027 -
Dostonbek To'xtaboyev Mashal Aktiv 64 / 62 40% 2 23.11.2027 -
Agustín Navarro Atenas Aktiv 111 / 91 40% 1 23.11.2027 -
Make Aldo Maulidino PSIM Aktiv 77 / 83 40% 1 22.11.2027 -
Francisco Gualtieri Estudiantes Aktiv 104 / 81 40% 1 22.11.2027 -
Rahimjon Davronov Andijon Aktiv 80 / 88 40% 3 21.11.2027 -
Óscar Hinojosa Metropolitanos Aktiv 82 / 102 40% 4 20.11.2027 -
Lautaro Espeche Instituto Aktiv 116 / 95 40% 2 19.11.2027 -
Reece Byrne Siracusa Aktiv 103 / 93 40% 6 18.11.2027 -
Darryl Ombang Mirandés Aktiv 66 / 95 40% 2 18.11.2027 -
Gregorio Blanco Deportes Quindio Aktiv 78 / 74 40% 2 17.11.2027 -
Grigol Chabradze Qizilqum Aktiv 102 / 82 40% 2 17.11.2027 -
Mateo del Pino Talleres Aktiv 74 / 102 40% 1 17.11.2027 -
Agustín da Rocha Cerrito Aktiv 105 / 76 40% 6 16.11.2027 -
Ignacio Giacinti Patronato Aktiv 96 / 85 40% 4 16.11.2027 -
Hugo Fisher Real Cartagena Aktiv 77 / 104 40% 2 16.11.2027 -
Braian Toloza Nueva Chicago Aktiv 102 / 100 40% 1 16.11.2027 -
Ronaldo Royero Depor Aktiv 90 / 91 40% 6 15.11.2027 -
Agustín Mieres Atlanta Aktiv 110 / 80 40% 3 14.11.2027 -
Derrick Kyere SV Ried Aktiv 108 / 84 40% 1 14.11.2027 -
Diego Robles Union Espanola Aktiv 68 / 92 40% 3 13.11.2027 -
Isaías Silva Miramar Misiones Aktiv 90 / 83 40% 1 13.11.2027 -
Oscar Page Brisbane Roar Aktiv 67 / 89 40% 4 12.11.2027 -
Tomás Lingua Universidad Catolica Aktiv 88 / 98 40% 3 12.11.2027 -
Cristian Lora Leones Aktiv 110 / 100 40% 2 10.11.2027 -
Ethan Cox Adelaide United Aktiv 108 / 102 40% 1 09.11.2027 -
Brayan Castro Bogota Aktiv 102 / 104 40% 1 08.11.2027 -
Wahyudi Hamisi Persijap Aktiv 86 / 82 40% 1 08.11.2027 -
Joaquín Mendive Tristán Suárez Aktiv 99 / 122 40% 4 07.11.2027 -
Lautaro Herrera Estudiantes Aktiv 119 / 120 40% 2 05.11.2027 -
Mauricio Camargo Colegiales Aktiv 115 / 84 40% 1 05.11.2027 -
Rifat Nurmugamet Shakhter Aktiv 81 / 92 40% 1 04.11.2027 -
Khulekani Kubheka PSIM Aktiv 116 / 110 40% 8 03.11.2027 -
Samandar Ochilov Mashal Aktiv 100 / 107 40% 1 03.11.2027 -
Matías Cantero All Boys Aktiv 83 / 86 40% 2 02.11.2027 -
Joaquín Giudice Platense Aktiv 83 / 84 40% 2 02.11.2027 -
Ashton Rinaldo Chesterfield Aktiv 64 / 82 40% 1 02.11.2027 -
Joelson Gamarra General Caballero Aktiv 93 / 94 40% 1 29.10.2027 -
Michael Kelly Accrington Stanley Aktiv 100 / 56 40% 1 29.10.2027 -
Román Albornoz Temperley Aktiv 73 / 109 40% 1 29.10.2027 -
Dillon Addai Bromley Aktiv 75 / 67 40% 1 28.10.2027 -
Ronnie Sandford Chesterfield Aktiv 91 / 73 40% 1 27.10.2027 -
Nicolás Gómez Ferro Carril Oeste Aktiv 103 / 90 40% 1 27.10.2027 -
Mack Allen Bournemouth Aktiv 69 / 91 40% 1 26.10.2027 -
Khaled Kamal Ba Aktiv 69 / 75 40% 3 25.10.2027 -
Ihojan Pérez Cerro Largo Aktiv 88 / 114 40% 4 24.10.2027 -
Segundo Pachamé Plaza Colonia Aktiv 104 / 94 40% 1 23.10.2027 -
Dan Cameron Ternana Aktiv 87 / 86 40% 1 21.10.2027 -
Tomás Barbero Defensores Unidos Aktiv 96 / 81 40% 6 20.10.2027 -
Henry Gray Oeste Aktiv 86 / 87 40% 2 20.10.2027 -
Omar Bautista Gerez Central Córdoba SdE Aktiv 80 / 82 40% 2 19.10.2027 -
Sebastián Viveros Alianza Petrolera Aktiv 86 / 100 40% 4 19.10.2027 -
Joel Bertolissio Newcastle Jets Aktiv 83 / 105 40% 2 19.10.2027 -
Joaquín Bigo Tristán Suárez Aktiv 111 / 120 40% 13 18.10.2027 -
Joaquín Avilés Cerrito Aktiv 92 / 80 40% 2 18.10.2027 -
Fabricio Hass Central Norte Aktiv 101 / 87 40% 2 16.10.2027 -
Juan Esteban Gallego Once Caldas Aktiv 117 / 107 40% 1 15.10.2027 -
Tiago Taobas Central Norte Aktiv 71 / 92 40% 1 14.10.2027 -
Juan Diego Perdomo Depor Aktiv 85 / 108 40% 5 13.10.2027 -
Gabriel Marín Union Magdalena Aktiv 94 / 99 40% 1 13.10.2027 -
Darwin Osorio Atletico Venezuela Aktiv 74 / 99 40% 2 12.10.2027 -
Gabriel Altamirano Almirante Brown Aktiv 90 / 120 40% 1 12.10.2027 -
Elías Calderón Central Norte Aktiv 131 / 108 40% 1 10.10.2027 -
Gonzalo Flores Almirante Brown Aktiv 106 / 119 40% 1 10.10.2027 -
Francis Hurl Reading Aktiv 75 / 94 40% 1 03.10.2027 -
Harry Lee Mirandés Aktiv 94 / 74 40% 1 03.10.2027 -
Tom Norcott Reading Aktiv 88 / 93 40% 4 01.10.2027 -
Sebastián González Deportivo Maldonado Aktiv 102 / 112 40% 1 29.09.2027 -
James Dadge Northampton Town Aktiv 94 / 103 40% 4 28.09.2027 -
Matías Rapetti Defensores Unidos Aktiv 104 / 92 40% 1 28.09.2027 -
James Hilton Macarthur FC Aktiv 74 / 73 40% 2 25.09.2027 -
Ryan Boxall Canterbury United Aktiv 84 / 89 40% 2 24.09.2027 -
Matías Canedo Rampla Juniors Aktiv 95 / 83 40% 2 20.09.2027 -
Franco Rodríguez Los Andes Aktiv 94 / 97 40% 1 19.09.2027 -
Lachie Charles Maccabi Netanya Aktiv 86 / 82 40% 1 15.09.2027 -
Sam Lewis Giana Erminio Aktiv 59 / 57 40% 2 13.09.2027 -
Harrison Rhone Reading Aktiv 82 / 69 40% 2 13.09.2027 -
Gonzalo Gutiérrez San Martín Aktiv 91 / 111 40% 3 09.09.2027 -
Awan Setho Bhayangkara Presisi Aktiv 104 / 96 40% 2 09.09.2027 -
César Leguizamón River Plate Aktiv 65 / 79 40% 1 08.09.2027 -
Federico Amestoy Miramar Misiones Aktiv 60 / 69 40% 1 06.09.2027 -
Gali Balanta Deportes Tolima Aktiv 88 / 82 40% 3 05.09.2027 -
Emiliano Bermúdez Oriental Aktiv 114 / 100 40% 2 02.09.2027 -
Alan Brítez Union La Calera Aktiv 104 / 81 40% 3 31.08.2027 -
Federico Bonilla River Plate Aktiv 79 / 101 40% 1 31.08.2027 -
Juan Esteban García Deportes Tolima Aktiv 75 / 85 40% 1 31.08.2027 -
Bruno Barrionuevo Godoy Cruz Aktiv 85 / 107 40% 1 31.08.2027 -
Lautaro Díaz San Martín Aktiv 76 / 102 40% 2 30.08.2027 -
Reuben Otieno Neftchi Aktiv 55 / 94 40% 1 28.08.2027 -
Jeremías Silveira Fenix Aktiv 97 / 90 40% 2 26.08.2027 -
Mohamed Bolivar Barranquilla Aktiv 72 / 88 40% 1 26.08.2027 -
Rodrigo Fumo Estudiantes Aktiv 112 / 95 40% 1 24.08.2027 -
Thiago Nahuel Independiente Aktiv 111 / 97 40% 1 24.08.2027 -
Lucas Wolfert Racing Club Aktiv 75 / 88 40% 2 22.08.2027 -
Gabriel Risso Patrón Colón Aktiv 108 / 101 40% 3 22.08.2027 -
Tiziano Delias Sarmiento Aktiv 87 / 87 40% 2 20.08.2027 -
Edwin Vargas Deportivo Tachira Aktiv 84 / 90 40% 1 19.08.2027 -
Sergio Borja La Equidad Aktiv 109 / 82 40% 3 18.08.2027 -
Santiago Montoya Leones Aktiv 80 / 87 40% 1 18.08.2027 -
Alejandro Amaya Union Magdalena Aktiv 80 / 109 40% 1 17.08.2027 -
Vicente Ramírez Universidad de Chile Aktiv 87 / 74 40% 3 16.08.2027 -
Rylee Mitchell Crotone Aktiv 99 / 83 40% 4 13.08.2027 -
Santiago Pereira Cerrito Aktiv 102 / 87 40% 2 11.08.2027 -
Lukas González Cerro Largo Aktiv 78 / 79 40% 2 10.08.2027 -
Jeremías Robledo Acosta Newell's Old Boys Aktiv 77 / 103 40% 1 10.08.2027 -
Juan Diego Arboleda Leones Aktiv 94 / 113 40% 1 09.08.2027 -
Diego Opazo Santiago Wanderers Aktiv 106 / 68 40% 1 09.08.2027 -
Ali Mekawir Navua Aktiv 85 / 67 40% 1 09.08.2027 -
Agustín Zapata Alvarado Aktiv 76 / 102 40% 2 03.08.2027 -
Matías Mansilla Alvarado Aktiv 98 / 98 40% 6 02.08.2027 -
Omari Patrick Northampton Town Aktiv 98 / 76 40% 2 02.08.2027 -
Keimer Sandoval Deportivo Cali Aktiv 88 / 90 40% 1 02.08.2027 -
Ben Fox Harrogate Town Aktiv 74 / 67 40% 2 01.08.2027 -
Fabián Palomino Ayacucho Aktiv 89 / 101 40% 1 31.07.2027 -
Nahuel Gallardo San Martín Aktiv 95 / 113 40% 3 30.07.2027 -
Brian Vega Santiago Wanderers Aktiv 90 / 79 40% 2 29.07.2027 -
Darío Pereira River Plate Aktiv 105 / 82 40% 1 29.07.2027 -
Rodrigo Russo Vélez Aktiv 67 / 114 40% 2 27.07.2027 -
Patrick Brough Tranmere Rovers Aktiv 75 / 75 40% 7 27.07.2027 -
Joaquín Mancuso Vélez Aktiv 66 / 95 40% 1 27.07.2027 -
Joshua Inserra Melbourne Victory Aktiv 87 / 86 40% 5 25.07.2027 -
Emanuel Lucena Portuguesa Aktiv 71 / 74 40% 1 25.07.2027 -
Diego Vargas Universidad de Concepcion Aktiv 90 / 104 40% 1 23.07.2027 -
Matthias Debono Hamrun Spartans Aktiv 52 / 79 40% 1 23.07.2027 -
Ignacio Coscio Huracán Aktiv 78 / 105 40% 1 23.07.2027 -
Lucas Urán Sydney FC Aktiv 90 / 87 40% 1 23.07.2027 -
Tom Bradbury Harrogate Town Aktiv 106 / 72 40% 1 21.07.2027 -
Zach Lisolajski Melbourne City Aktiv 81 / 106 40% 2 20.07.2027 -
Nahuel Yzaurralde Quilmes Aktiv 94 / 81 40% 1 20.07.2027 -
Ulíses López Barracas Central Aktiv 92 / 92 40% 1 19.07.2027 -
Luciano Batista Cerrito Aktiv 95 / 80 40% 1 18.07.2027 -
Matías Montero Madryn Aktiv 107 / 90 40% 1 17.07.2027 -
William O'Sullivan Crawley Town Aktiv 62 / 67 40% 3 16.07.2027 -
Pietro Reggiori Pro Patria Aktiv 84 / 103 40% 1 16.07.2027 -
Arian Pardo Adelaide United Aktiv 104 / 98 40% 2 15.07.2027 -
Macklin Freke Melbourne City Aktiv 92 / 93 40% 1 14.07.2027 -
Tom Finch Milton Keynes Dons Aktiv 47 / 69 40% 2 11.07.2027 -
Carlos da Rosa Cerro Aktiv 107 / 86 40% 2 09.07.2027 -
Donovan Makoma Birkirkara Aktiv 85 / 72 40% 1 08.07.2027 -
Henry Blackledge Ayacucho Aktiv 78 / 85 40% 2 07.07.2027 -
Jack Phillips Trento Aktiv 65 / 50 40% 1 07.07.2027 -
Simón Meza Liverpool Montevideo Aktiv 96 / 89 40% 2 06.07.2027 -
Rafa Benevides Chaves Aktiv 108 / 79 40% 1 04.07.2027 -
Santiago Galli Belgrano Aktiv 71 / 93 40% 2 02.07.2027 -
Harley Price Derby County Aktiv 80 / 95 40% 2 02.07.2027 -
Francisco Marchant Colo-Colo Aktiv 84 / 90 40% 1 02.07.2027 -
Matthew Ireland Northampton Town Aktiv 62 / 94 40% 1 01.07.2027 -
Esteban Rodríguez Uruguay Montevideo Aktiv 76 / 67 40% 1 01.07.2027 -
Martín González San Telmo Aktiv 93 / 107 40% 3 26.06.2027 -
Suhayb Al Kharusi Arezzo Aktiv 67 / 74 40% 1 26.06.2027 -
Julián Lobelos Arsenal Aktiv 115 / 108 40% 2 25.06.2027 -
Ignacio Sáez Universidad de Chile Aktiv 74 / 72 40% 1 25.06.2027 -
Joe Collins Swansea City Aktiv 85 / 58 40% 3 23.06.2027 -
Joe Ashton Chesterfield Aktiv 89 / 63 40% 1 23.06.2027 -
Lorenzo Bordo Monopoli Aktiv 125 / 120 40% 1 22.06.2027 -
Tom Donaghy Oldham Athletic Aktiv 63 / 46 40% 1 19.06.2027 -
Laureano Paez Colón Aktiv 113 / 115 40% 1 19.06.2027 -
Diego Tampieri Arzignano Aktiv 69 / 54 40% 1 19.06.2027 -
Nicolás Medina Atlanta Aktiv 125 / 91 40% 2 18.06.2027 -
Richard Castillo Valledupar Aktiv 63 / 88 40% 2 18.06.2027 -
Ravinesh Reddy Nadroga Aktiv 60 / 60 30% 1 / 1m 16.06.2027 -
Ollie Hobden Newport County Aktiv 89 / 54 40% 1 14.06.2027 -
Santino Bacciadone Banfield Aktiv 65 / 104 40% 1 14.06.2027 -
Simone Paolini Sambenedettese Aktiv 66 / 68 40% 2 12.06.2027 -
Ewan Griffiths Cardiff City Aktiv 59 / 53 40% 1 11.06.2027 -
Michel Silveira Rentistas Aktiv 93 / 110 40% 2 10.06.2027 -
Ben Hughes Swindon Town Aktiv 58 / 56 40% 2 09.06.2027 -
Federico Montiel Agropecuario Argentino Aktiv 107 / 82 40% 1 09.06.2027 -
Raffaele Maria Di Costanzo Cavese Aktiv 63 / 108 40% 3 08.06.2027 -
Luca Pichin Wayttorn All Boys Aktiv 78 / 70 40% 1 06.06.2027 -
Maximo Ingravidi Colón Aktiv 85 / 120 40% 3 30.05.2027 -
Cameron Gardner Grimsby Town Aktiv 97 / 71 40% 3 30.05.2027 -
Benjamin Jack Sliema Wanderers Aktiv 86 / 107 40% 1 30.05.2027 -
Fabricio Díaz San Lorenzo Aktiv 99 / 103 40% 4 28.05.2027 -
Luca Roversi Pergolettese Aktiv 69 / 79 40% 2 28.05.2027 -
Joe Barough Reading Aktiv 67 / 67 40% 1 28.05.2027 -
George Plusnin Brisbane Roar Aktiv 66 / 67 40% 2 25.05.2027 -
Nicolás Ferreira Artigas Aktiv 60 / 100 40% 1 22.05.2027 -
George Barrett Ipswich Town Aktiv 56 / 65 40% 1 22.05.2027 -
Callum Yam Hull City Aktiv 50 / 74 40% 2 21.05.2027 -
Dylan Cabral Arsenal Aktiv 79 / 82 40% 3 21.05.2027 -
Ollie Dewsbury Bristol Rovers Aktiv 77 / 71 40% 3 21.05.2027 -
Ahmad Noviandani Madura United Aktiv 81 / 56 40% 1 21.05.2027 -
Ozodbek Marufov Nadroga Aktiv 63 / 73 40% 1 20.05.2027 -
Noah Cooper Stoke City Aktiv 79 / 95 40% 4 18.05.2027 -
Miguel Marulanda Envigado Aktiv 75 / 80 40% 1 16.05.2027 -
Agustín Zabaleta Chaco For Ever Aktiv 81 / 83 40% 2 15.05.2027 -
Anthony Didulica Perth Glory Aktiv 84 / 67 40% 3 13.05.2027 -
Lucas Myers Swindon Town Aktiv 84 / 78 40% 2 13.05.2027 -
Daniele Celiento Salernitana Aktiv 110 / 97 40% 2 13.05.2027 -
James Rogerson Accrington Stanley Aktiv 82 / 61 40% 1 13.05.2027 -
Javier Bacca Universitario Popayan Aktiv 83 / 99 40% 1 13.05.2027 -
Brad Young Bristol Rovers Aktiv 78 / 89 40% 4 08.05.2027 -
Keehan Willows Lincoln City Aktiv 106 / 71 40% 1 06.05.2027 -
Oliver Dragićević Melbourne Victory Aktiv 65 / 78 40% 2 05.05.2027 -
Giammaria Fiorin Virtus Verona Aktiv 68 / 53 40% 1 05.05.2027 -
Lautaro Cano Central Córdoba SdE Aktiv 85 / 106 40% 1 05.05.2027 -
Felipe Igón Racing Club Aktiv 117 / 91 40% 1 03.05.2027 -
Aidan Dausch Oliveirense Aktiv 75 / 103 40% 2 02.05.2027 -
Shea Connor Monopoli Aktiv 85 / 93 40% 1 02.05.2027 -
Ben Clark Bristol City Aktiv 53 / 95 40% 2 01.05.2027 -
Kit Margetson Swansea City Aktiv 48 / 83 40% 2 30.04.2027 -
Seb Stacey Crawley Town Aktiv 81 / 96 40% 5 29.04.2027 -
Sergio Carrasco Cobresal Aktiv 101 / 93 40% 2 29.04.2027 -
Joshua Kayode Wolfsberger AC Aktiv 80 / 110 40% 2 29.04.2027 -
Khiani Shombe Hull City Aktiv 75 / 99 40% 1 28.04.2027 -
Tomás Pereira Pontedera Aktiv 67 / 81 40% 2 26.04.2027 -
James Pradic Stevenage Aktiv 85 / 88 40% 2 24.04.2027 -
Facundo Rodríguez Talleres Aktiv 99 / 118 40% 1 23.04.2027 -
Riley Dalziell Auckland FC Aktiv 89 / 98 40% 1 23.04.2027 -
Matthew Rowley Reading Aktiv 82 / 84 40% 1 20.04.2027 -
Harry French Pontedera Aktiv 90 / 77 40% 3 18.04.2027 -
Carlos Richards Bromley Aktiv 72 / 59 40% 2 18.04.2027 -
Matt Dench Perth Glory Aktiv 87 / 99 40% 1 18.04.2027 -
Marquinhos Torreense Aktiv 88 / 99 40% 2 17.04.2027 -
Jajá Madura United Aktiv 79 / 121 40% 1 17.04.2027 -
Valentino Massi Sarmiento Aktiv 111 / 97 40% 2 16.04.2027 -
Anderson Brum Tacuarembo Aktiv 99 / 85 40% 1 16.04.2027 -
Pele Smith Fleetwood Town Aktiv 60 / 99 40% 2 15.04.2027 -
Maximiliano Arias Defensores Aktiv 67 / 93 40% 1 14.04.2027 -
Wonderson Yakubu Hapoel Raanana Aktiv 58 / 65 40% 5 13.04.2027 -
Sutanto Tan Persis Aktiv 83 / 65 40% 1 13.04.2027 -
Alex Nunes Newcastle Jets Aktiv 66 / 85 40% 1 12.04.2027 -
Ethan Binnie Norwich City Aktiv 60 / 44 40% 1 12.04.2027 -
Jack Warshawsky Melbourne Victory Aktiv 97 / 92 40% 1 12.04.2027 -
Joaquín Postigo Quilmes Aktiv 102 / 126 40% 2 11.04.2027 -
Eyder Restrepo Llaneros Aktiv 103 / 104 40% 1 06.04.2027 -
Jacob Poytress Chesterfield Aktiv 81 / 81 40% 2 05.04.2027 -
Diego Carreño O'Higgins Aktiv 72 / 107 40% 2 02.04.2027 -
Benjamín Garay Los Andes Aktiv 84 / 113 40% 1 31.03.2027 -
Nathan Walker Wellington Phoenix Aktiv 84 / 96 40% 1 31.03.2027 -
Cameron Antwi Gillingham Aktiv 74 / 111 40% 1 30.03.2027 -
Akam Moses PSIM Aktiv 80 / 54 40% 1 27.03.2027 -
Jafé Pérez Bogota Aktiv 71 / 102 40% 1 25.03.2027 -
Sebastián Corradi Talleres Aktiv 72 / 82 40% 1 22.03.2027 -
Tobías Ganduglia Independiente Rivadavia Aktiv 69 / 100 40% 3 21.03.2027 -
Harvey Bardsley Potenza Aktiv 55 / 54 40% 1 21.03.2027 -
Harrison Chamberlain Colchester United Aktiv 66 / 64 40% 3 20.03.2027 -
Gabriele Di Giovannantonio Latina Aktiv 62 / 100 40% 1 20.03.2027 -
Hernán Domínguez Nacional Aktiv 87 / 68 40% 1 19.03.2027 -
Charlie Cummins Exeter City Aktiv 51 / 63 40% 2 16.03.2027 -
Adame Laidouni Gzira United Aktiv 98 / 103 40% 1 16.03.2027 -
Jack Dallimore Bolton Wanderers Aktiv 89 / 76 40% 1 16.03.2027 -
Santiago Briñone San Martín Aktiv 106 / 131 40% 1 16.03.2027 -
Ben Winterbottom Barrow AFC Aktiv 70 / 71 40% 2 14.03.2027 -
Khumoitsile Rathokolo Burton Albion Aktiv 89 / 98 40% 1 13.03.2027 -
Freddie Godden Bristol City Aktiv 78 / 75 40% 1 13.03.2027 -
Alejandro Garay Independiente Aktiv 85 / 99 40% 1 12.03.2027 -
Lautaro Cueli San Lorenzo Aktiv 93 / 87 40% 3 11.03.2027 -
Will Armitage Westerlo Aktiv 94 / 88 40% 1 10.03.2027 -
Alex Villa González Atlético Tucumán Aktiv 90 / 100 40% 1 09.03.2027 -
Ryan Kalms Melbourne City Aktiv 89 / 90 40% 1 06.03.2027 -
Tom Wooster Padova Aktiv 77 / 68 40% 2 03.03.2027 -
Martín García Olimpia Aktiv 99 / 103 40% 2 02.03.2027 -
Agustín Ortíz Racing Aktiv 63 / 108 40% 1 27.02.2027 -
Basil Tuma Reading Aktiv 66 / 84 40% 2 26.02.2027 -
Iván Díaz Millonarios Aktiv 100 / 66 40% 1 25.02.2027 -
Jayden Smith Wellington Phoenix Aktiv 75 / 86 40% 2 24.02.2027 -
Italo Espinoza San Martín Aktiv 128 / 110 40% 1 22.02.2027 -
Ben Metcalf Sunderland Aktiv 50 / 54 40% 1 21.02.2027 -
Lewis Boney Bradford City Aktiv 69 / 56 40% 1 19.02.2027 -
Will McKay Macarthur FC Aktiv 58 / 86 40% 1 17.02.2027 -
Luke Vickery Macarthur FC Aktiv 74 / 89 40% 1 14.02.2027 -
Marshall Francis Sheffield United Aktiv 83 / 99 40% 1 07.02.2027 -
Juan Manuel Mazzolo Maipú Aktiv 69 / 92 40% 1 06.02.2027 -
Santiago Uriza Vélez Aktiv 60 / 96 40% 1 05.02.2027 -
Diego Sánchez River Plate Aktiv 66 / 88 40% 1 04.02.2027 -
Camilo Salamanca Unión de Santa Fe Aktiv 113 / 77 40% 1 01.02.2027 -
Enzo Abondetto Central Norte Aktiv 79 / 125 40% 1 29.01.2027 -
Roni Santos Birkirkara Aktiv 101 / 56 40% 1 28.01.2027 -
Tomás Sinópoli Gimnasia y Tiro Aktiv 72 / 105 40% 1 26.01.2027 -
Mauricio Jiménez Belgrano Aktiv 93 / 98 40% 1 19.01.2027 -
Lucas Más Maipú Aktiv 95 / 107 40% 1 17.01.2027 -
Franco Tassitani San Telmo Aktiv 68 / 72 40% 1 16.01.2027 -
Nahuel González Mitre Aktiv 89 / 73 40% 1 16.01.2027 -
Bruno Fernández Independiente Aktiv 80 / 94 40% 1 15.01.2027 -
José Cabrera Union Magdalena Aktiv 70 / 113 40% 1 13.01.2027 -
Joel Erlinch Racing Aktiv 89 / 81 40% 1 13.01.2027 -
Alan Torterolo Defensor Sporting Aktiv 65 / 106 40% 1 11.01.2027 -
Liam Jessop Chesterfield Aktiv 85 / 69 40% 1 11.01.2027 -
Ryan Delaney Swindon Town Aktiv 106 / 82 40% 1 07.01.2027 -
Antony McCormick Swindon Town Aktiv 59 / 55 40% 1 05.01.2027 -
Archie Howard Hull City Aktiv 42 / 53 40% 1 04.01.2027 -
Coby Hewitson Sheffield United Aktiv 51 / 88 40% 1 04.01.2027 -
Tevita Naranayanan Labasa Aktiv 63 / 75 37% 1 02.01.2027 -
Jaime Acosta Barranquilla Aktiv 107 / 112 40% 1 30.12.2026 -
Alex Baird Leeds United Aktiv 59 / 60 40% 1 28.12.2026 -
David Fernández Unión de Santa Fe Aktiv 87 / 77 40% 3 27.12.2026 -
Maximiliano Badur Morón Aktiv 123 / 127 40% 1 25.12.2026 -
Fabrizio Almeida San Miguel Aktiv 103 / 77 40% 1 23.12.2026 -
Abel Galbán Colón Aktiv 90 / 85 40% 1 21.12.2026 -
Leonardo Sosa Rosario Central Aktiv 77 / 94 40% 2 18.12.2026 -
Lewis Beckford West Ham United Aktiv 43 / 79 40% 1 18.12.2026 -
Luis Lines Norwich City Aktiv 58 / 96 40% 1 18.12.2026 -
Thiago Sabella Banfield Aktiv 107 / 96 40% 1 17.12.2026 -
Chinonso Chibueze Harrogate Town Aktiv 53 / 58 40% 1 13.12.2026 -
Alex Stepien-Iwumene Bromley Aktiv 63 / 82 40% 1 12.12.2026 -
Emiliano Márquez Central Espanol Aktiv 97 / 79 40% 1 12.12.2026 -
Jeremias Vazquez Gimnasia y Tiro Aktiv 74 / 82 40% 1 06.12.2026 -
Franco Barrionuevo Racing Club Aktiv 105 / 83 40% 1 05.12.2026 -
Zac Smith Nottingham Forest Aktiv 47 / 62 40% 1 04.12.2026 -
Louis Brady West Bromwich Albion Aktiv 63 / 58 40% 1 02.12.2026 -
Jamie Mauge Ipswich Town Aktiv 93 / 54 40% 1 02.12.2026 -
Carlo Lattanzio San Martín SJ Aktiv 120 / 117 40% 1 21.11.2026 -
Javier Mena Deportivo Pereira Aktiv 106 / 106 40% 1 21.11.2026 -
Matías Zorzoli Newell's Old Boys Aktiv 97 / 106 40% 1 20.11.2026 -
Gerardo Díaz San Martín SJ Aktiv 83 / 95 40% 1 18.11.2026 -
Diego Mercado San Martín SJ Aktiv 127 / 102 40% 1 17.11.2026 -
Martín Rodríguez Mitre Aktiv 127 / 90 40% 1 17.11.2026 -
César Urpín Zamora Aktiv 109 / 90 40% 2 15.11.2026 -
Kaion Lisbie Colchester United Aktiv 97 / 98 40% 1 15.11.2026 -
Sonny Rowland Norwich City Aktiv 69 / 54 40% 1 11.11.2026 -
Valentino Huertas Morón Aktiv 93 / 85 40% 1 11.11.2026 -
Frey Berrio Envigado Aktiv 94 / 94 40% 1 10.11.2026 -
Ignacio Abarza Huracán Aktiv 102 / 72 40% 2 08.11.2026 -
Valentín Catalán Argentinos Juniors Aktiv 94 / 90 40% 2 04.11.2026 -
Francisco Vergara Gimnasia La Plata Aktiv 113 / 117 40% 1 30.10.2026 -
Tomás Chetelain Estudiantes Aktiv 104 / 95 40% 1 30.10.2026 -
Stefan McCowatt Hawke's Bay United Aktiv 62 / 55 40% 1 30.10.2026 -
Lautaro Acosta Lanús Aktiv 84 / 78 40% 2 28.10.2026 -
Martín García Aldosivi Aktiv 97 / 115 40% 1 28.10.2026 -
Fernando García Carabobo Aktiv 64 / 57 40% 1 26.10.2026 -
Felipe Coronel All Boys Aktiv 101 / 97 40% 3 23.10.2026 -
Andrés Robles San Marcos de Arica Aktiv 72 / 100 40% 1 23.10.2026 -
Diego Vicente La Luz Aktiv 71 / 92 40% 1 22.10.2026 -
Matías Escobar San Miguel Aktiv 87 / 81 40% 1 19.10.2026 -
Jonás Ravano Colón Aktiv 91 / 120 40% 1 18.10.2026 -
Mateo Stefan Cerro Largo Aktiv 77 / 74 40% 1 18.10.2026 -
Mauro Rodas Sportivo Trinidense Aktiv 83 / 65 40% 1 18.10.2026 -
Felipe Pontoni Talleres Aktiv 85 / 110 40% 1 16.10.2026 -
Tomás Escobar Independiente Rivadavia Aktiv 68 / 86 40% 1 16.10.2026 -
Francisco Ginella Albion Aktiv 110 / 87 40% 3 15.10.2026 -
Juan Pablo Posse Atlético Tucumán Aktiv 110 / 89 40% 1 15.10.2026 -
Ernesto Pontoriero San Telmo Aktiv 110 / 78 40% 1 14.10.2026 -
Lucas Testa Platense Aktiv 84 / 77 40% 1 13.10.2026 -
Lautaro Buteler San Telmo Aktiv 94 / 114 40% 1 11.10.2026 -
Fabricio Aguirre Arsenal Aktiv 78 / 98 40% 1 03.10.2026 -
Diego Méndez Tacuarembo Aktiv 87 / 103 40% 1 03.10.2026 -
Luca Regiardo Newell's Old Boys Aktiv 104 / 121 40% 1 03.10.2026 -
Gerardo Larraya Instituto Aktiv 97 / 81 40% 2 01.10.2026 -
Duván Mósquera Aguilas Doradas Aktiv 78 / 85 40% 2 29.09.2026 -
Facundo Binzugna Boca Juniors Aktiv 59 / 72 40% 1 29.09.2026 -
José Luis Torres Boston River Aktiv 57 / 105 40% 1 29.09.2026 -
Ciro Thompson Newell's Old Boys Aktiv 99 / 82 40% 1 28.09.2026 -
Nicolás Fernández Maipú Aktiv 97 / 119 40% 1 25.09.2026 -
Harrison Shillington Melbourne Victory Aktiv 55 / 62 40% 1 20.09.2026 -
Gerónimo Patritti Gimnasia y Esgrima Aktiv 81 / 95 40% 1 20.09.2026 -
Luka Andrade Montevideo City Torque Aktiv 70 / 121 40% 1 19.09.2026 -
Mauro Carrizo Atlético Tucumán Aktiv 121 / 97 40% 1 19.09.2026 -
Emanuel Sittaro Instituto Aktiv 107 / 110 40% 1 18.09.2026 -
Mateo Bustamante Tristán Suárez Aktiv 100 / 119 40% 1 15.09.2026 -
Kevin Lezcano Guarani Aktiv 100 / 66 40% 1 15.09.2026 -
Thiago Cano Banfield Aktiv 81 / 96 40% 1 09.09.2026 -
Thiago Perruisset Boca Juniors Aktiv 88 / 106 40% 1 08.09.2026 -
Luca Landriel Maipú Aktiv 111 / 104 40% 1 06.09.2026 -
Alexis Dulón Huracán Aktiv 105 / 97 40% 1 05.09.2026 -
Julián Marchio San Martín SJ Aktiv 115 / 93 40% 1 03.09.2026 -
Jonatan Resquin Quilmes Aktiv 90 / 92 40% 1 02.09.2026 -
Lautaro Duarte Deportivo Riestra Aktiv 99 / 105 40% 1 02.09.2026 -
Renato Ardissono San Lorenzo Aktiv 70 / 103 40% 1 01.09.2026 -
Facundo Di Sibio Agropecuario Argentino Aktiv 78 / 90 40% 1 01.09.2026 -
Simón Romero Independiente Medellin Aktiv 91 / 60 40% 1 27.08.2026 -
Fernando Camarda Central Espanol Aktiv 106 / 122 40% 1 27.08.2026 -
Mathías Bernatene Liverpool Montevideo Aktiv 93 / 101 40% 2 26.08.2026 -
Luis Guevara Real Cartagena Aktiv 115 / 80 40% 1 26.08.2026 -
Lautaro Fernández Rosario Central Aktiv 105 / 98 40% 1 24.08.2026 -
Federico Ricca Belgrano Aktiv 113 / 142 40% 1 22.08.2026 -
Jorge Martínez Deportivo Pereira Aktiv 85 / 65 40% 1 21.08.2026 -
Luca Fernández Barracas Central Aktiv 69 / 79 40% 1 19.08.2026 -
Francisco Gerometta Godoy Cruz Aktiv 109 / 91 40% 1 18.08.2026 -
Jano Franco Independiente Rivadavia Aktiv 107 / 107 40% 1 11.08.2026 -
Teo Merlo Mitre Aktiv 57 / 56 40% 1 08.08.2026 -
Sebastián Ciganda Auckland City Aktiv 74 / 71 40% 1 08.08.2026 -
Tahiel González Defensa y Justicia Aktiv 108 / 105 40% 1 05.08.2026 -
Gonzalo Tapia Palestino Aktiv 78 / 78 40% 1 05.08.2026 -
Tobías Quinteros Almirante Brown Aktiv 59 / 70 40% 1 05.08.2026 -
Facundo Basualdo Newell's Old Boys Aktiv 76 / 98 40% 1 03.08.2026 -
Nicolás Heiz Maipú Aktiv 98 / 127 40% 1 02.08.2026 -
Alex Badolato Newcastle Jets Aktiv 105 / 107 40% 1 02.08.2026 -